Terug naar catalogus

STARLINK-3915

ActiefCommunicatieVLEO
NORAD 52581·PAYLOAD·🇺🇸 United States

Gelanceerd May 13, 2022 vanaf Vandenberg Space Force Base

Loading…

Volgende Passages (komende 24 uur)

TLE

VersSource: CelesTrak SupGP

Epoch: Sep 14, 2026, 21:27 UTC

1 52581C 22051AX  26257.89423611 -.00031649  00000+0 -90558-3 0  2578
2 52581  53.1590 343.6895 0001178  82.9181  36.7312 15.35411554    17

Volg STARLINK-3915 in realtime met AllMySat

Download on the App Store